Theta_e
336 337 336 336 336 336 336 336 336 336 336 336 334 333 332 331 330 331 332 332 330 323 316 312 315 324 332 337 338 337 336 334 333 332 330 329 326 326 324 320 314 316 317 315 317 315 313 311 309 309 309 310 311 313 315 319 322 323 323 324 324 323 321 318 316 315 316 315 314 312 310 308 308 308 308 308 307 308 308 308 308 308 308 309 310
336 337 337 336 336 335 336 335 335 335 335 336 334 333 331 330 329 329 329 329 329 323 316 312 311 311 319 331 334 333 334 332 332 331 330 328 325 325 324 320 314 314 318 319 319 315 311 310 309 309 310 310 310 311 312 315 318 320 321 322 322 320 318 317 316 316 317 316 314 311 309 309 309 309 309 308 308 307 308 308 308 309 310 311 313
336 337 337 337 336 335 334 334 335 335 335 335 333 332 330 330 330 329 328 328 326 321 315 312 312 311 317 326 326 326 331 331 331 330 327 327 325 325 325 320 313 311 314 314 314 311 310 310 311 311 310 310 310 311 311 313 314 316 317 318 318 318 317 317 317 318 316 314 312 310 310 310 310 311 310 309 308 308 309 310 310 310 312 314 317
337 337 337 336 335 333 332 333 334 334 334 334 332 331 330 330 330 329 327 326 323 319 315 312 313 315 321 326 322 322 327 326 326 322 320 324 326 326 325 318 311 309 310 309 309 310 311 311 311 312 311 311 311 311 311 312 313 314 315 316 316 316 316 315 316 317 316 313 312 311 311 311 313 316 316 313 312 312 314 316 317 312 313 318 320
337 336 337 335 332 330 330 333 334 333 332 332 331 330 331 331 330 327 325 323 321 318 314 313 314 316 323 326 324 324 324 323 323 321 318 319 321 321 320 315 310 309 309 309 310 311 311 312 312 313 312 312 312 311 311 311 312 312 313 313 314 314 313 314 316 317 316 314 314 313 313 313 316 321 322 318 316 316 318 321 320 315 315 317 318
337 336 336 334 330 325 326 330 332 331 332 332 331 331 331 331 329 326 322 320 319 316 313 314 315 317 321 323 324 324 323 323 322 322 319 317 318 318 319 320 320 318 314 311 311 311 311 313 313 313 312 312 312 312 312 311 311 311 312 311 312 313 314 316 318 318 316 315 316 316 316 315 315 320 322 320 318 319 319 320 318 317 319 318 315
336 336 334 331 328 324 323 325 328 330 332 333 331 331 331 330 328 324 320 317 316 314 314 316 317 317 318 320 323 324 324 323 321 321 318 318 321 320 323 326 327 327 324 316 311 311 312 313 313 313 312 312 312 312 312 312 312 311 312 313 315 315 316 317 317 318 317 317 317 317 317 317 318 321 323 321 320 320 319 319 320 319 320 319 316
335 333 330 326 325 325 324 323 324 327 332 333 331 331 331 329 326 321 317 315 314 313 313 315 318 318 319 322 323 324 323 320 319 318 314 316 320 318 323 327 329 330 330 321 311 311 312 314 313 313 312 312 312 312 313 313 313 313 314 316 317 317 317 317 317 318 316 317 317 317 318 320 324 324 324 323 321 322 319 319 321 320 319 319 319
332 332 329 323 321 323 323 322 322 325 331 333 332 331 330 328 324 317 314 314 313 312 314 314 315 316 317 318 319 319 319 316 316 318 315 317 319 318 323 328 329 329 329 322 312 311 312 313 313 313 313 313 313 313 313 313 313 313 314 315 316 317 317 317 318 318 317 317 316 317 320 322 325 326 326 324 322 322 320 320 321 320 320 320 320
329 330 329 323 319 319 317 319 322 324 330 332 331 331 329 325 320 316 313 312 312 312 314 315 313 314 315 314 315 315 315 314 314 317 316 318 317 316 321 325 326 326 326 319 312 311 312 313 313 313 313 313 313 312 312 312 312 312 313 314 315 316 316 316 318 318 317 317 315 316 321 323 325 326 327 326 324 323 321 322 323 322 322 322 321
329 328 328 322 317 315 315 320 323 325 329 330 330 331 327 321 318 315 313 312 313 313 313 315 314 315 315 315 316 314 314 314 313 315 316 318 317 316 319 319 320 321 319 314 311 312 312 313 313 313 313 313 312 312 312 312 312 312 313 313 315 316 316 316 316 317 316 316 315 316 319 322 324 326 326 327 327 326 325 324 324 323 322 323 322
332 330 326 318 315 317 321 326 328 327 328 329 330 329 325 320 317 313 313 314 313 314 316 316 316 317 317 314 314 313 312 313 313 314 316 318 318 320 321 319 317 316 313 312 312 311 312 313 313 313 312 312 312 312 312 312 312 312 312 313 315 317 316 316 315 317 316 315 316 316 317 320 323 325 326 327 327 327 326 325 324 323 322 323 322
330 330 324 315 316 322 327 330 330 329 328 329 329 327 324 320 317 312 313 318 316 314 317 317 316 318 316 312 312 311 311 311 312 313 314 315 317 321 322 321 319 314 312 312 312 311 312 313 313 313 312 312 312 312 312 312 313 312 313 313 315 316 316 315 316 317 316 316 317 317 316 318 322 324 326 326 327 327 327 326 324 323 322 323 322
324 327 324 316 318 325 329 330 329 329 328 328 328 325 322 318 315 312 313 318 318 315 314 316 315 314 312 311 311 311 311 310 311 313 314 314 315 319 321 322 320 314 312 312 312 312 312 313 312 312 312 312 312 313 313 313 313 313 313 314 314 314 315 315 317 317 316 316 318 317 316 316 318 321 324 325 326 327 326 325 324 323 322 323 323
322 323 323 317 319 325 328 329 328 329 328 327 326 323 320 315 313 311 312 315 315 314 313 314 313 311 310 310 310 309 309 309 310 312 313 314 314 316 318 319 316 313 312 312 312 313 313 312 312 312 312 313 313 313 314 314 314 314 314 314 315 315 315 316 318 319 318 317 318 317 316 316 315 317 322 324 325 325 325 324 323 323 321 322 322
323 322 321 316 318 324 327 329 329 329 328 325 323 321 318 313 310 310 311 312 312 313 313 313 312 310 309 309 309 309 309 309 310 311 312 313 313 314 315 315 313 312 312 312 313 312 312 312 312 313 313 313 313 314 314 314 313 314 314 315 316 316 316 317 319 320 318 317 317 316 316 317 316 316 319 322 324 324 324 323 322 322 321 320 319
323 321 321 317 317 322 326 329 329 328 327 323 320 319 315 311 309 309 310 311 312 312 311 312 311 310 309 308 308 308 309 310 311 312 312 312 312 313 313 312 312 312 312 312 312 312 312 312 313 313 313 313 313 314 314 314 313 313 314 315 316 316 316 318 320 319 318 317 316 317 317 317 317 316 319 321 323 323 322 322 321 321 321 319 318
323 323 322 318 317 321 325 329 330 328 326 321 318 317 312 309 309 309 309 310 311 312 311 311 311 310 309 308 308 308 309 311 312 312 312 312 312 312 312 312 312 313 313 312 312 312 313 313 313 313 314 314 314 315 315 315 314 314 314 315 317 316 316 318 320 319 318 316 316 317 317 317 316 318 322 323 323 323 322 320 319 321 322 320 318
325 325 324 319 316 320 324 329 330 328 323 319 316 314 311 309 309 309 309 310 311 311 312 312 311 310 308 308 308 308 310 311 312 312 312 312 312 312 312 312 312 313 312 312 313 313 313 313 314 314 314 315 316 316 316 316 316 317 317 317 317 315 316 318 319 319 317 315 316 317 317 316 316 317 322 323 323 323 321 318 318 321 322 320 321
325 325 325 321 317 318 322 326 329 327 322 319 315 312 310 309 308 309 309 310 312 312 312 312 310 309 308 308 308 309 310 311 312 313 313 313 312 313 312 312 312 313 313 313 313 314 314 314 314 314 315 316 317 317 317 318 319 320 319 320 318 315 317 318 319 318 316 315 316 317 316 316 316 317 321 324 324 321 318 317 320 322 320 320 323
325 327 326 322 319 320 322 324 326 325 321 318 316 312 310 309 308 308 309 310 310 311 311 310 309 309 308 308 308 309 310 311 312 312 313 313 313 313 313 313 312 313 313 313 314 314 314 315 315 315 315 316 318 317 317 318 319 320 320 320 319 317 319 318 317 317 316 316 316 317 316 315 314 316 321 323 321 318 315 318 322 321 318 321 324
326 328 327 324 321 321 323 324 325 323 319 317 315 312 311 310 308 308 309 309 309 310 310 310 309 308 308 308 308 309 309 311 312 313 313 313 313 313 313 313 313 313 313 314 314 315 315 315 315 315 316 316 317 317 317 317 318 320 319 319 318 317 318 318 317 316 316 316 316 316 315 315 313 316 321 320 316 313 314 319 321 318 318 322 322
326 328 327 325 323 320 321 324 325 322 317 316 314 311 311 310 308 309 309 309 309 309 309 309 309 308 308 308 308 308 309 311 312 313 313 313 314 313 313 313 312 313 313 314 314 314 315 315 315 315 316 316 316 317 317 318 318 319 319 319 318 316 317 318 316 316 317 317 316 316 314 313 313 317 320 317 312 311 313 316 316 313 316 318 317
324 326 326 325 323 319 317 322 325 323 319 317 314 311 311 310 309 309 309 309 309 309 309 308 308 308 308 308 308 308 309 311 312 313 313 314 314 313 313 313 313 313 313 314 314 315 315 315 315 316 316 316 317 318 317 319 319 320 319 319 318 316 317 318 318 316 317 317 316 315 313 313 313 314 317 314 310 310 309 310 311 309 310 310 309
322 324 326 326 324 320 316 318 323 324 324 320 316 312 309 310 309 309 309 309 309 308 309 308 308 308 308 308 308 309 309 310 312 313 313 313 314 314 313 313 313 313 313 314 314 315 315 315 316 316 316 316 318 319 317 317 318 319 319 317 317 316 317 319 318 316 316 317 315 313 312 312 312 311 312 311 308 307 306 306 308 306 304 304 303
324 323 325 326 325 322 317 317 319 321 325 323 318 315 310 310 309 309 309 308 309 309 308 309 308 308 308 308 309 309 309 309 311 312 313 313 313 313 314 313 313 313 314 314 315 316 316 316 317 316 317 317 318 321 319 318 318 319 319 318 319 317 318 319 317 316 316 316 314 312 312 311 311 310 308 307 305 304 303 303 303 302 301 301 300
325 324 324 325 324 322 319 320 320 319 322 323 321 318 310 309 310 309 309 308 308 308 308 309 308 308 308 308 309 309 308 309 310 311 312 313 313 313 313 313 313 314 314 315 316 316 316 317 316 316 320 320 321 322 321 321 320 320 320 320 320 317 319 320 317 317 317 316 313 312 311 310 308 307 306 304 303 302 302 301 301 300 300 300 300
325 326 326 326 323 320 319 321 322 319 318 318 320 318 311 310 310 309 309 308 308 308 309 308 308 308 308 308 308 308 308 308 309 310 312 313 313 313 313 313 314 314 315 315 316 316 316 317 316 317 320 321 322 322 321 322 321 320 321 321 319 317 320 320 318 317 317 315 312 311 309 307 306 304 303 302 302 301 300 300 300 300 300 299 299
326 326 326 327 325 319 316 318 318 316 314 313 316 315 313 312 310 309 309 308 308 309 309 309 309 308 308 308 308 308 308 308 309 310 311 312 313 313 313 313 314 314 315 315 316 316 317 317 317 319 320 320 321 320 321 322 321 320 322 322 318 318 320 319 318 318 316 313 311 310 307 305 304 302 302 301 301 300 300 300 299 300 300 299 299
328 327 327 327 326 321 317 316 314 313 313 312 312 312 312 311 309 308 308 308 309 309 309 309 309 308 308 308 307 308 308 308 308 309 311 312 312 313 313 313 314 315 315 315 316 316 317 317 318 319 320 321 321 321 322 322 321 321 321 321 318 319 320 316 317 317 315 313 311 309 305 303 302 301 301 300 300 300 299 299 299 303 303 299 298
330 329 328 327 327 325 320 319 317 314 313 312 312 311 310 310 310 309 309 309 309 309 309 309 309 308 308 308 308 308 308 308 308 309 310 312 313 313 313 314 314 315 315 315 316 316 317 317 318 320 320 321 319 319 321 322 321 320 320 320 319 320 319 316 317 317 314 312 309 307 303 302 301 301 300 300 300 299 299 299 299 303 302 298 298
331 330 329 328 328 326 324 322 321 319 317 315 315 315 313 312 312 311 310 310 309 309 309 309 309 308 308 308 308 308 308 308 308 309 310 312 313 314 314 315 315 315 315 316 316 316 317 318 320 320 320 320 318 319 320 320 321 319 319 320 320 321 320 318 319 316 313 311 307 304 301 301 300 300 300 299 300 299 299 299 299 299 299 298 298
332 331 330 329 328 327 326 324 323 322 321 319 319 320 318 317 315 312 311 310 309 309 309 309 309 309 309 308 308 308 307 308 308 309 310 312 313 314 314 314 315 315 316 316 317 317 318 319 320 320 320 320 319 320 320 320 321 319 320 321 320 321 320 320 318 314 312 309 305 302 300 301 300 299 300 299 299 299 299 299 298 298 298 298 297
332 332 331 330 329 328 327 326 325 323 322 321 321 323 323 321 319 316 313 312 311 311 310 309 309 309 309 309 309 309 308 308 308 309 309 311 312 313 314 314 315 317 318 319 319 318 318 318 318 319 321 320 319 321 320 320 321 319 320 320 321 321 320 320 317 313 311 307 303 301 300 300 299 299 299 299 299 299 299 298 298 298 297 297 297
333 332 332 331 330 330 329 327 326 325 323 322 322 323 323 324 323 320 317 314 313 313 311 311 310 310 310 310 310 310 309 309 309 309 310 311 312 313 314 315 317 319 320 321 319 318 317 318 319 320 320 320 319 322 320 319 320 320 320 320 321 320 319 319 316 312 309 304 301 300 300 300 299 299 299 299 299 299 299 298 298 297 297 297 297
332 333 333 332 331 331 330 329 327 326 326 324 323 323 323 324 324 323 321 318 315 314 314 313 312 311 311 311 312 312 311 311 311 311 310 311 313 313 315 317 319 321 321 320 319 318 318 319 320 320 320 319 320 321 320 319 320 320 320 320 320 320 319 319 316 311 306 301 299 299 300 300 299 299 299 299 299 299 298 298 297 297 297 297 296
329 332 333 332 332 331 331 330 328 326 326 326 325 324 323 323 323 324 323 321 319 317 316 315 315 314 312 313 313 314 314 314 313 313 312 313 314 315 316 319 320 320 320 319 319 318 319 319 319 320 320 319 319 320 320 320 320 320 319 319 320 320 319 317 315 310 303 299 299 299 299 299 299 299 299 299 299 298 298 298 297 297 297 296 296
325 329 332 333 332 331 331 330 330 328 327 326 326 325 324 323 323 323 323 323 322 320 319 318 317 317 316 315 315 315 316 316 317 316 316 317 317 318 319 320 320 320 319 320 319 319 319 318 318 320 320 319 319 319 320 320 320 320 318 318 319 318 318 317 313 307 301 299 299 299 299 299 299 299 299 299 298 298 298 297 297 297 297 296 296
323 325 329 332 333 332 331 330 330 329 328 327 327 326 325 324 323 322 322 323 323 322 322 321 320 319 318 317 317 317 316 317 317 317 317 318 319 319 319 320 320 320 320 320 320 319 318 317 319 320 319 319 320 320 320 319 318 317 317 318 318 317 317 316 311 305 299 299 299 299 299 299 299 299 299 299 298 298 298 297 297 297 296 296 296
324 323 325 329 331 332 331 330 329 329 329 329 328 327 326 325 324 323 323 323 324 324 323 321 321 321 320 319 318 318 317 317 317 318 318 318 318 319 319 320 320 320 320 320 320 319 317 317 319 320 319 319 321 321 320 317 316 316 317 319 319 317 316 314 310 304 298 299 299 298 299 299 299 299 298 299 298 298 297 297 297 296 296 296 296
327 325 324 324 326 329 330 329 328 328 328 329 329 328 327 327 327 326 325 325 326 325 324 322 321 321 320 320 319 318 317 317 318 318 318 318 318 318 318 319 320 320 320 319 320 319 318 318 319 321 321 320 321 321 318 315 316 318 318 319 318 316 315 313 309 303 298 298 298 298 299 299 299 298 298 298 298 298 297 297 296 296 296 296 296
326 325 324 322 322 324 325 326 327 327 327 328 329 329 328 328 327 327 326 326 326 326 325 324 322 320 320 319 318 317 317 317 318 318 318 318 318 319 318 318 319 319 319 319 319 319 319 318 319 321 322 321 322 321 318 315 317 320 319 319 316 314 313 311 307 302 298 298 298 298 299 298 298 298 298 298 298 297 297 296 296 296 296 296 296
324 324 325 324 323 321 320 322 325 326 326 327 327 328 328 328 327 327 327 327 327 327 327 326 324 322 320 320 318 318 317 318 318 319 319 318 318 319 319 319 319 319 319 319 319 319 319 319 319 321 322 322 322 320 318 316 318 320 319 319 315 312 313 311 306 302 298 298 298 298 298 298 298 298 298 298 297 297 296 296 296 296 296 296 296
323 324 324 323 322 319 317 318 321 324 325 326 326 327 328 328 328 327 327 327 327 328 328 327 326 325 323 322 321 320 320 320 320 321 320 319 319 319 318 318 319 319 319 319 319 319 319 319 319 320 320 321 321 320 318 317 319 319 318 319 315 310 312 312 306 301 298 297 297 297 298 298 298 298 298 298 297 297 296 296 296 296 296 296 296
321 320 319 319 318 317 317 317 318 319 321 324 326 326 327 327 328 328 328 328 328 329 329 329 328 327 325 324 322 322 321 321 320 321 321 321 320 320 319 319 319 319 319 319 319 319 319 319 320 320 320 320 320 319 317 316 317 318 317 318 316 311 309 309 306 302 298 297 297 297 298 297 298 298 298 297 297 296 296 295 295 296 296 296 295
318 316 315 315 315 316 316 317 317 317 318 320 323 325 326 327 327 327 328 328 328 328 328 328 327 326 325 324 324 323 323 322 321 322 322 321 321 320 320 319 319 320 320 320 320 320 319 320 321 322 321 321 320 319 317 315 315 317 317 317 316 314 310 309 309 305 300 298 298 298 298 298 297 297 297 297 296 296 295 295 295 295 295 295 295
316 315 315 315 315 316 316 316 315 315 316 316 318 321 323 325 326 326 326 326 326 326 325 325 325 325 325 325 325 325 324 324 323 323 323 322 321 321 320 320 320 320 320 320 320 320 321 321 321 321 322 322 322 319 317 316 315 316 316 315 315 316 315 314 313 310 304 302 302 302 301 299 297 297 297 296 296 295 295 295 295 295 295 295 295
315 315 315 315 315 315 315 316 316 315 315 315 315 316 318 320 323 324 325 326 325 325 324 324 324 324 324 325 325 326 326 326 325 324 324 323 322 322 321 321 320 321 322 321 321 321 322 322 321 321 323 323 322 320 317 317 317 316 315 314 314 316 315 313 315 315 308 306 307 305 303 300 297 296 297 296 296 295 295 295 295 295 295 295 295
315 315 314 314 314 315 315 316 316 316 315 315 315 315 315 316 318 321 323 324 324 324 324 324 324 324 323 324 325 325 326 326 325 325 324 323 323 322 322 322 322 322 323 322 322 322 322 323 322 321 323 324 322 320 317 316 317 317 316 314 313 316 317 313 314 315 310 307 308 306 303 301 297 296 297 296 295 295 295 295 295 295 295 294 294
315 315 315 314 314 314 315 315 315 315 316 316 315 315 315 315 316 317 319 320 321 323 323 323 323 324 323 323 323 323 324 324 324 324 323 323 323 323 322 322 323 323 323 323 322 321 322 323 323 322 323 324 323 321 317 316 317 316 315 315 312 313 315 314 312 311 308 307 307 305 303 301 298 297 297 296 296 295 295 295 295 295 294 294 294
316 316 315 315 315 314 315 315 315 315 316 316 316 316 316 316 315 315 316 316 318 320 321 321 321 322 322 321 321 322 322 323 323 322 322 322 322 322 322 323 323 324 324 323 322 321 321 322 323 323 323 323 323 322 318 318 319 316 314 314 311 308 309 312 310 307 305 305 304 303 302 300 298 297 297 296 296 295 295 295 295 294 294 294 293
Wind_Speed
14 12 12 12 11 11 10 9 8 7 7 7 6 6 6 5 5 4 5 6 7 7 8 9 10 11 12 13 12 12 12 11 10 9 7 5 6 8 8 8 9 11 12 12 12 12 12 12 13 12 12 11 11 10 11 10 10 10 10 10 9 8 7 5 5 7 9 9 10 9 8 10 11 10 11 11 12 12 12 11 11 12 12 13 13
16 14 12 12 11 10 10 9 8 7 6 6 6 5 5 5 4 4 4 5 6 7 7 8 9 9 10 10 9 8 8 7 7 5 3 5 8 9 9 10 11 12 13 13 13 13 12 13 13 12 12 11 11 10 10 10 9 9 8 8 8 7 7 7 8 11 13 12 12 10 9 9 10 10 11 11 11 11 11 11 11 12 13 13 13
17 15 12 12 11 11 9 8 8 6 6 5 5 4 4 4 4 4 4 3 5 6 7 8 9 9 10 10 7 7 7 6 4 2 3 8 11 10 9 9 11 12 13 13 12 12 12 12 12 11 11 11 11 11 10 10 9 8 8 7 7 7 7 8 9 12 12 12 12 12 11 10 10 10 11 11 11 11 11 11 11 12 12 13 13
16 14 13 12 11 11 10 9 8 6 5 4 4 4 4 4 4 4 3 4 5 7 7 8 8 10 11 10 7 7 7 5 4 4 8 12 12 12 10 10 12 12 12 12 11 11 11 12 12 11 11 11 12 11 11 10 9 9 8 8 7 7 7 8 10 11 11 11 12 12 12 11 11 13 13 14 15 13 12 13 13 12 12 13 13
14 14 13 11 11 11 10 9 8 6 4 3 3 3 4 4 4 4 4 5 5 6 7 8 8 10 11 11 9 8 8 7 9 10 10 11 11 11 11 11 12 12 12 11 11 11 11 12 12 13 13 13 13 13 12 11 10 10 9 9 8 8 8 9 10 11 10 11 12 13 13 12 12 15 15 17 19 17 14 14 15 14 13 13 12
14 14 13 12 10 10 10 9 8 6 5 4 3 3 4 4 4 5 5 5 5 6 7 8 8 10 11 12 12 11 10 10 12 11 11 12 12 11 11 12 13 12 11 10 10 11 11 12 13 14 15 15 15 14 14 13 12 11 11 11 10 9 9 9 9 10 11 14 15 15 15 13 12 15 16 18 21 19 16 15 16 16 15 14 12
13 14 13 12 11 10 9 9 9 7 5 4 3 3 3 3 4 4 5 5 6 8 8 8 9 10 11 12 12 11 11 11 11 11 12 13 12 12 13 14 14 13 10 9 9 10 11 13 14 14 15 16 16 16 15 14 13 13 12 12 11 10 11 11 10 9 12 15 15 15 15 15 15 14 14 18 20 19 17 16 16 17 17 16 15
14 15 14 12 11 10 9 8 8 7 6 4 3 3 3 3 3 4 5 5 6 8 8 8 9 10 10 11 11 10 10 10 10 10 11 12 12 13 15 15 14 12 10 9 9 9 11 13 14 14 15 16 16 16 16 15 14 13 12 11 11 11 14 13 12 11 12 14 15 15 15 16 17 15 14 15 20 20 17 19 18 17 20 21 18
14 14 13 12 11 10 10 9 8 7 6 4 3 3 2 2 2 3 5 6 7 8 8 8 8 9 9 10 9 9 8 9 9 9 10 11 11 13 14 14 13 11 9 8 8 9 11 13 14 14 15 15 16 16 16 15 15 14 13 12 11 12 13 12 12 13 13 14 15 16 17 17 17 16 15 14 20 21 17 20 22 20 21 23 20
14 13 12 13 12 11 10 10 9 8 7 5 4 3 2 2 2 3 5 7 7 8 8 8 8 8 9 9 8 8 7 8 8 8 10 11 11 12 12 12 11 10 9 7 8 10 11 12 13 14 14 15 15 15 15 15 15 15 14 13 12 12 14 13 11 12 13 13 14 15 16 17 17 17 15 14 17 21 20 20 21 22 20 21 21
13 12 10 12 14 11 11 10 10 9 8 5 4 3 3 3 3 3 6 8 8 8 9 8 8 7 8 8 8 8 7 8 8 8 10 11 11 11 10 10 10 9 8 8 8 10 11 12 13 13 14 14 15 15 15 15 15 15 15 14 13 12 14 14 11 10 11 11 13 14 13 14 15 15 14 13 14 17 20 18 18 20 19 18 20
13 11 8 12 15 12 12 11 10 10 8 6 4 4 4 4 3 4 7 9 9 9 9 8 8 8 8 9 8 8 8 8 7 8 9 10 11 10 10 9 9 9 7 8 9 10 11 11 12 13 14 14 15 15 15 15 15 15 14 14 13 12 13 14 11 8 9 11 12 13 11 12 13 13 12 12 13 15 16 16 16 17 18 16 17
15 12 9 12 15 13 12 12 11 9 8 6 4 4 4 4 4 5 7 9 9 8 8 8 8 8 8 9 8 7 8 8 7 7 8 9 10 10 10 9 9 9 9 8 9 10 11 11 12 12 13 14 14 14 14 14 14 14 14 13 12 11 12 13 11 8 9 11 12 11 10 9 11 11 11 11 13 13 13 13 14 14 16 15 15
16 13 10 13 15 13 13 12 10 9 7 6 5 5 4 4 4 6 7 8 8 8 8 7 7 7 8 8 8 7 7 8 7 7 8 8 9 10 10 9 8 9 10 9 9 10 10 11 12 12 13 14 14 14 14 13 13 13 13 12 10 9 9 11 10 8 9 10 11 11 9 8 8 9 11 11 11 11 11 12 11 12 12 12 13
15 12 11 14 15 13 13 12 11 9 8 6 6 6 4 4 5 7 8 7 7 7 8 7 7 7 7 7 7 7 6 7 7 7 7 7 9 10 10 9 9 10 10 10 10 10 10 11 11 12 12 13 13 13 13 12 12 12 11 10 8 8 8 8 8 8 8 9 9 9 9 8 6 7 9 9 10 9 10 10 10 9 9 10 11
14 13 12 14 15 13 14 13 11 9 8 7 6 6 5 6 6 8 8 7 7 7 8 7 7 8 7 7 6 6 6 6 6 7 7 8 9 9 10 9 10 10 10 10 10 10 10 11 11 11 12 12 12 12 12 11 11 10 9 8 7 8 7 7 7 8 9 9 9 9 9 9 8 7 7 7 8 9 9 10 10 9 9 8 9
14 13 12 15 15 14 14 13 12 10 9 8 7 7 7 8 7 8 8 7 7 7 8 7 8 8 7 7 7 6 6 7 7 7 8 8 9 9 10 10 10 10 10 10 10 10 10 10 10 11 11 11 11 11 11 11 10 9 7 7 6 7 7 7 7 7 8 10 10 10 9 9 8 8 8 7 7 9 9 10 10 10 10 10 10
14 12 13 15 16 15 15 14 13 10 10 8 8 9 9 10 9 8 8 7 7 7 7 7 8 9 8 8 7 7 7 7 8 8 9 9 9 9 9 10 10 10 9 9 10 10 9 9 10 10 10 11 11 11 11 10 10 10 8 7 7 6 6 6 6 6 7 8 9 9 9 9 9 9 9 9 8 9 9 8 8 10 11 11 11
13 12 13 15 16 16 16 14 13 11 10 9 9 11 11 11 10 9 8 8 7 7 6 6 8 10 9 8 7 8 7 8 8 9 9 9 9 9 9 9 9 10 9 9 9 9 9 9 9 9 10 10 10 10 11 11 12 11 10 9 7 6 6 5 6 7 7 7 8 9 9 10 9 9 9 9 9 8 8 7 8 11 11 10 12
13 12 13 14 16 16 16 15 13 12 11 11 11 12 11 11 11 10 9 8 8 8 7 6 9 10 9 9 8 8 8 7 8 8 9 9 9 9 9 9 9 9 8 8 9 8 8 8 8 8 8 9 9 9 10 11 11 10 10 10 10 8 6 5 6 7 7 7 8 10 10 11 10 9 9 9 8 7 7 8 11 11 9 10 12
14 13 12 14 16 16 17 16 14 14 13 13 12 13 12 12 12 11 10 9 8 8 7 7 9 10 9 9 8 8 7 7 8 8 8 9 9 9 8 8 8 8 8 8 8 7 7 6 6 6 7 7 7 7 8 8 8 8 8 8 10 9 7 6 6 6 8 8 9 11 11 11 10 9 9 8 7 7 7 9 10 9 9 11 11
16 14 14 14 17 17 17 16 15 14 14 14 14 14 12 12 12 12 11 9 9 8 8 8 9 9 9 10 9 8 8 7 7 8 8 8 8 8 8 7 7 7 7 7 6 6 5 5 5 4 5 5 4 5 5 6 6 6 6 7 9 8 7 7 6 6 9 9 10 11 11 10 9 9 9 8 8 8 9 10 9 8 9 9 7
19 17 16 15 16 17 17 17 15 15 15 15 15 15 13 13 13 12 11 10 9 9 9 8 9 9 9 9 9 9 8 8 8 8 8 8 8 7 7 6 6 6 6 5 4 4 3 3 3 3 4 4 4 5 5 6 6 6 6 8 9 8 6 7 5 6 8 8 9 9 10 9 8 9 9 9 9 9 10 10 9 9 9 8 6
21 19 17 16 15 16 17 17 16 16 16 15 16 15 14 14 14 12 11 10 9 9 9 9 9 9 9 9 9 9 9 9 9 8 8 8 8 7 6 6 5 5 5 4 3 2 1 2 3 4 4 4 5 6 6 5 4 5 5 5 7 6 5 6 6 6 7 8 8 8 8 8 8 9 9 9 10 10 9 9 10 10 9 8 7
20 19 18 17 16 15 16 17 17 16 15 16 16 16 15 15 14 13 11 10 10 10 10 9 10 10 9 10 9 10 11 10 9 9 8 8 8 7 6 6 5 5 4 3 2 1 1 2 3 4 4 4 5 7 6 3 2 3 3 3 5 5 4 5 5 6 7 7 7 7 8 7 8 9 9 9 9 9 9 10 11 11 10 10 9
18 19 18 18 17 15 16 17 18 17 16 16 16 16 16 15 14 13 11 11 11 10 10 10 10 10 10 10 8 9 10 10 10 10 9 8 8 7 7 6 5 4 3 2 1 1 2 3 4 4 4 4 6 7 7 6 5 4 4 6 8 5 4 4 5 6 6 5 6 7 8 8 8 8 8 9 9 10 10 11 12 11 11 11 11
18 19 19 19 18 16 17 17 17 17 17 17 16 17 17 16 15 13 12 12 11 11 11 11 11 11 11 10 8 8 10 10 10 10 10 9 8 8 7 6 5 4 3 3 2 4 4 4 5 2 2 4 4 6 7 9 7 5 5 8 10 5 4 5 5 5 4 4 5 7 8 8 8 8 8 9 10 10 10 11 11 10 10 11 11
19 18 18 17 18 18 18 19 18 18 17 17 17 17 17 16 15 14 13 12 12 12 11 12 11 12 12 10 9 9 10 11 11 10 10 9 9 8 7 6 5 5 4 4 4 5 6 6 5 2 2 3 3 4 5 7 7 5 5 8 10 3 4 4 4 4 3 4 5 7 7 8 8 8 8 9 9 9 10 10 10 10 10 11 11
20 20 19 17 17 18 19 19 19 18 16 16 16 17 17 15 13 13 13 13 13 12 12 12 12 12 12 11 10 11 11 11 11 11 11 10 9 8 8 7 6 6 5 5 5 6 7 8 5 4 4 4 5 5 4 4 5 4 4 9 7 3 3 2 2 2 2 4 5 6 7 7 7 7 8 8 8 9 9 9 10 10 10 10 11
21 21 20 19 18 18 18 17 16 16 15 15 15 16 17 16 14 13 13 13 14 13 13 13 12 13 12 12 12 12 11 11 12 12 11 11 9 9 8 7 6 6 7 7 7 7 8 8 7 6 6 7 8 8 6 3 4 3 3 7 4 4 1 2 2 3 1 3 4 6 7 7 7 7 7 7 8 8 8 9 9 9 9 10 10
21 22 22 21 20 19 19 17 15 14 15 15 15 16 16 16 14 13 13 13 13 13 14 13 13 13 13 13 13 13 13 13 13 12 11 10 10 9 9 8 8 8 8 9 9 9 9 9 8 7 6 8 7 5 7 5 4 4 1 4 3 3 1 3 3 4 1 2 4 6 6 6 6 6 6 6 7 7 8 8 8 8 8 9 10
24 25 24 24 22 20 19 18 17 15 15 15 15 15 14 14 13 12 14 13 13 14 14 13 13 14 14 14 13 14 14 14 14 13 12 11 10 11 10 10 10 10 10 10 10 9 9 9 9 8 5 5 3 1 4 4 4 3 1 2 2 0 3 3 4 4 2 1 5 6 5 5 5 5 5 6 6 6 7 7 7 7 7 8 8
26 26 25 26 25 23 21 20 19 17 16 16 15 14 13 13 12 13 14 14 14 15 14 13 13 14 14 14 14 14 14 14 14 14 13 12 12 12 12 11 11 11 11 11 10 10 10 9 9 8 4 3 2 0 1 2 4 2 2 2 2 2 3 4 5 4 3 2 5 5 5 4 4 4 4 5 5 6 6 6 6 6 6 7 7
27 27 27 27 27 26 25 23 21 20 18 18 17 16 14 14 13 13 14 14 15 15 14 13 14 14 14 14 14 15 15 15 15 14 14 13 13 14 13 12 12 12 11 11 11 11 10 8 6 6 4 3 2 2 2 4 4 2 4 5 4 4 5 5 5 3 3 3 4 4 4 3 3 3 4 4 4 5 5 5 5 5 6 6 7
30 29 30 29 28 29 29 28 26 23 22 20 20 18 17 15 14 14 14 14 15 14 13 14 15 14 13 14 15 15 15 16 16 15 14 14 15 15 14 13 12 11 12 13 13 12 9 7 6 5 4 4 4 4 4 5 4 3 5 6 5 6 7 6 5 3 3 4 4 3 3 3 3 3 3 4 4 4 4 4 4 4 5 6 7
34 33 31 30 30 30 30 31 30 28 26 24 22 21 19 18 16 16 15 15 15 14 14 14 15 15 14 14 15 16 16 17 17 15 15 15 16 16 14 12 12 13 13 13 13 11 8 7 7 6 5 6 7 7 6 5 5 5 6 7 7 8 8 7 5 4 5 6 5 3 2 2 2 2 3 2 2 3 3 3 3 4 5 7 8
32 35 34 32 32 31 31 31 32 31 29 27 26 24 23 21 19 18 17 16 16 16 15 15 15 15 14 14 16 16 16 17 17 16 15 16 16 16 14 13 15 15 14 13 12 10 9 9 9 8 8 8 9 9 6 6 7 7 6 8 10 9 9 7 5 5 6 6 5 4 2 1 1 2 2 1 1 2 2 2 3 4 5 7 8
28 33 36 35 32 31 31 31 31 32 31 30 29 28 26 24 22 21 20 19 18 17 17 17 17 17 16 15 16 17 17 18 18 17 16 16 17 16 15 16 17 16 15 13 12 11 11 10 9 10 10 9 9 7 7 7 8 8 7 8 9 9 11 8 6 7 7 7 5 4 2 1 0 1 0 0 1 1 2 2 3 4 5 7 8
27 31 35 37 35 33 32 31 31 31 31 31 31 31 29 27 26 24 24 23 21 20 19 19 19 19 19 18 18 18 18 19 19 19 18 18 18 18 17 17 18 17 16 14 14 14 13 10 9 11 11 10 8 7 8 9 9 10 10 8 6 8 10 8 7 9 8 7 6 4 2 1 1 1 0 0 0 1 2 3 4 5 6 7 9
29 29 32 36 38 37 35 33 32 32 32 32 33 34 33 31 30 29 29 27 25 23 23 23 22 22 22 21 21 21 20 20 21 21 21 20 20 20 20 19 20 19 18 17 16 16 14 12 12 13 12 11 10 9 9 9 8 11 11 8 5 7 9 9 9 10 9 8 6 3 2 2 2 1 1 1 1 2 3 4 5 6 7 8 9
31 31 32 34 37 38 37 34 33 33 33 34 35 36 37 35 33 33 33 31 28 27 27 26 25 25 24 24 24 23 22 22 22 23 23 23 22 22 22 22 22 21 20 19 17 17 15 14 14 14 13 12 11 10 10 10 10 13 12 9 7 8 10 10 10 11 10 9 7 4 3 3 2 1 1 2 2 3 4 4 6 7 8 9 10
34 34 34 34 34 36 37 35 33 34 34 34 35 37 38 37 36 35 34 32 31 30 29 28 27 27 27 27 27 25 24 23 23 23 24 24 24 24 24 23 23 22 21 19 18 18 18 16 15 15 14 13 13 12 12 12 14 16 13 11 10 11 11 11 10 11 10 10 8 5 4 3 2 2 2 3 3 4 4 5 6 7 8 9 10
35 35 35 35 35 35 36 36 35 35 34 34 36 37 38 38 37 35 34 33 32 31 30 29 28 29 29 29 29 27 25 24 23 23 23 24 24 25 24 23 23 22 22 20 19 20 20 18 16 16 15 15 16 15 13 14 16 16 15 13 12 14 13 12 13 12 11 11 9 6 5 4 3 3 3 4 4 5 5 5 6 7 8 10 12
37 36 36 36 36 36 36 36 36 36 34 34 35 36 37 38 38 36 35 34 32 31 30 31 31 31 32 32 31 29 28 26 25 24 24 24 24 24 25 24 24 23 22 21 21 21 20 19 17 17 17 17 18 18 16 17 17 18 18 15 13 15 15 15 16 14 13 12 10 7 5 5 5 4 4 5 5 6 6 5 5 7 8 10 12
37 37 36 36 35 35 36 36 37 36 35 34 34 35 37 38 39 38 37 36 35 34 35 35 36 36 35 35 34 32 30 29 28 27 27 26 26 25 25 25 24 24 23 22 22 22 20 19 18 18 18 18 18 18 18 19 21 20 20 16 14 16 17 16 16 15 15 14 11 8 6 5 6 5 5 6 6 7 7 5 5 6 8 10 11
36 36 35 34 34 34 35 36 37 36 35 34 34 34 36 38 40 40 41 41 41 41 40 40 39 38 37 36 35 33 32 32 31 30 29 29 28 28 27 27 26 26 25 24 23 22 21 21 20 19 19 18 17 19 20 20 21 22 22 21 17 16 17 18 18 17 17 16 13 10 8 7 6 6 6 6 7 8 7 5 5 6 8 10 11
34 34 34 35 35 35 35 35 36 36 35 35 34 35 37 38 40 41 42 42 43 43 41 40 39 38 37 36 35 35 34 34 33 32 32 31 30 29 28 28 27 27 26 25 25 24 22 22 21 21 20 19 19 21 20 19 21 23 23 24 23 17 15 20 22 19 19 19 18 15 12 10 8 8 7 7 8 9 8 6 5 6 8 10 12
32 33 35 35 36 36 35 35 35 35 35 35 35 36 37 38 39 40 41 43 43 42 40 39 39 38 37 36 35 35 35 35 35 34 33 32 31 29 29 28 28 28 27 27 26 25 24 23 23 22 21 21 22 22 20 20 22 23 21 23 26 22 16 19 22 20 17 18 21 20 17 14 11 10 9 8 8 9 9 7 5 7 8 10 12
30 32 34 34 34 35 35 35 35 35 35 35 36 37 37 37 38 40 41 42 42 42 40 40 39 39 38 37 36 36 36 36 36 35 34 32 31 30 29 29 28 28 29 29 28 27 26 26 25 24 23 23 24 22 21 21 22 23 22 22 26 26 21 19 23 23 19 17 19 21 20 17 14 12 11 9 8 8 10 9 6 8 9 10 11
30 31 31 33 34 34 35 36 35 36 37 37 38 38 38 38 38 40 41 41 42 42 41 41 41 40 40 38 37 37 36 36 36 35 35 33 32 31 30 30 29 29 29 29 29 29 29 29 27 26 25 25 25 24 22 21 21 23 24 22 24 28 26 24 25 25 23 20 17 17 18 17 14 13 13 10 8 7 9 9 7 9 9 10 12
32 32 31 32 33 34 35 36 35 36 37 39 39 39 40 39 39 39 39 40 40 41 42 42 42 42 41 40 39 39 38 37 37 36 36 34 33 32 32 31 30 31 31 31 30 30 30 30 28 27 27 27 26 25 24 22 21 22 24 24 24 27 28 26 25 24 24 22 18 15 17 17 14 13 12 10 7 5 6 7 8 9 9 11 12
Wind_Direction
157 153 146 141 137 128 122 119 116 116 109 106 98 90 81 74 73 76 69 62 68 81 94 111 127 130 126 118 116 123 122 117 118 116 109 99 71 58 55 58 70 82 90 92 88 84 81 81 83 85 88 94 99 102 104 107 106 103 99 96 93 88 76 61 44 45 53 56 49 47 50 57 62 60 55 49 45 42 40 40 37 33 31 31 28
155 153 151 144 140 131 126 123 123 124 119 117 104 88 73 68 64 63 58 55 69 82 91 103 121 141 144 131 133 144 131 117 113 109 85 74 68 71 75 74 82 88 89 87 85 82 78 78 83 88 91 95 97 100 102 105 107 103 100 93 86 77 61 48 35 47 63 60 48 48 53 59 62 59 55 51 45 39 32 31 30 31 34 32 28
156 154 155 149 145 136 133 133 132 134 131 122 101 84 71 70 65 59 59 64 72 80 85 93 108 127 134 132 144 148 134 129 127 137 101 87 86 89 86 81 87 91 88 84 81 79 78 79 82 86 90 92 93 95 99 101 103 104 101 94 87 77 62 50 37 42 55 55 52 55 60 65 65 61 58 54 43 36 30 29 30 32 37 34 30
159 157 158 155 151 140 142 144 141 144 136 123 102 84 72 75 74 68 67 73 77 82 85 88 99 109 115 123 137 132 125 132 128 120 108 101 100 98 90 87 93 92 88 84 82 81 81 82 81 83 84 86 88 90 92 96 97 99 98 95 89 79 65 51 40 38 42 52 62 65 65 65 67 62 58 56 41 32 33 36 38 37 36 35 35
163 161 161 160 156 145 148 150 148 151 142 135 113 85 78 78 67 62 67 73 82 90 91 92 99 107 109 111 114 114 117 119 108 101 102 106 104 102 94 88 90 89 86 84 84 84 83 83 83 82 82 83 85 87 88 91 92 94 93 92 88 80 70 56 49 46 48 60 68 66 61 58 64 63 57 50 37 31 37 39 40 39 35 33 41
168 163 164 164 162 153 154 156 156 155 147 141 112 94 92 80 60 55 66 76 95 104 101 102 104 108 112 112 109 107 109 110 106 101 99 103 103 102 95 88 85 85 84 82 82 86 88 87 87 84 85 85 85 87 88 89 89 90 88 89 87 84 78 63 52 49 50 55 61 58 54 52 54 64 53 38 32 30 37 39 38 38 36 35 41
171 165 167 167 167 164 161 163 163 162 150 137 119 110 99 72 59 61 77 90 105 110 108 110 110 111 113 116 114 108 107 106 107 106 104 104 104 100 96 93 89 88 84 82 85 87 89 88 88 87 87 87 88 89 88 88 87 86 85 86 85 86 84 76 67 60 52 49 53 51 54 56 51 55 39 28 28 27 34 37 38 39 36 31 33
176 169 169 170 172 171 170 169 168 166 159 146 131 113 88 58 61 74 92 105 111 111 112 116 115 115 117 117 116 112 110 110 107 107 110 108 105 102 100 99 96 96 90 88 90 87 88 87 87 86 87 87 87 85 84 82 80 79 78 79 77 74 74 73 77 73 62 53 52 51 53 58 54 47 28 28 27 23 35 35 34 39 36 32 30
178 173 173 176 173 173 177 177 175 171 169 163 141 121 93 70 76 89 105 114 120 118 118 122 121 120 120 120 118 115 112 114 112 106 110 108 106 109 108 106 107 107 100 95 94 90 89 87 87 86 86 86 84 82 79 76 73 71 68 67 66 65 65 64 69 69 63 54 53 56 56 57 56 48 30 28 23 20 34 34 31 31 32 33 30
178 174 177 180 173 174 179 178 181 177 176 173 154 142 125 114 102 100 119 122 124 125 122 123 124 123 122 122 122 124 120 117 116 107 105 105 107 114 117 117 120 120 111 107 104 96 91 87 87 86 86 85 82 80 75 72 68 65 61 59 61 66 70 64 60 61 63 56 53 61 64 60 56 51 36 24 18 19 27 28 27 26 27 29 27
182 175 175 179 174 173 174 173 176 178 179 179 168 158 152 145 122 114 129 129 125 125 126 124 123 125 126 126 125 127 126 120 117 111 105 106 110 116 121 127 131 130 116 111 107 97 92 89 88 87 86 82 79 75 70 66 63 61 58 56 56 60 68 68 62 59 69 68 56 58 66 65 60 56 43 27 19 19 21 23 22 20 24 26 21
190 182 173 177 173 169 167 168 169 174 179 181 176 165 163 144 125 129 131 130 127 125 128 130 131 132 134 133 127 121 121 121 119 115 112 113 117 118 120 127 132 134 124 111 104 97 96 93 90 88 83 79 74 70 66 62 60 58 56 55 53 52 57 63 62 58 69 72 59 54 58 65 66 60 50 33 23 19 16 19 17 14 22 23 18
194 189 180 176 171 168 167 167 168 174 178 181 178 165 166 149 128 128 130 130 131 134 136 136 137 130 125 127 126 123 122 123 123 119 116 120 125 126 123 123 126 130 127 111 102 100 97 93 89 85 81 77 72 67 64 60 59 56 55 54 51 49 50 57 58 50 54 60 53 47 47 60 66 59 57 41 27 19 10 13 13 14 19 16 17
195 191 182 180 174 169 169 171 173 176 180 184 179 173 169 152 132 125 133 138 137 146 149 147 139 123 116 118 122 126 125 123 124 123 119 121 127 133 131 126 124 123 121 110 103 99 95 93 87 83 78 74 69 65 62 59 57 55 55 54 51 47 48 60 61 44 43 53 48 37 35 48 59 56 57 48 31 17 7 8 8 14 20 14 14
196 192 185 183 178 173 174 176 177 180 184 184 177 175 168 144 132 132 140 146 142 148 153 154 141 126 125 122 123 125 123 121 119 124 124 122 126 132 133 126 122 117 114 109 105 101 96 93 87 81 75 70 67 64 61 58 56 54 53 52 48 42 44 63 64 44 38 43 38 31 30 32 39 47 52 48 30 13 5 5 0 1 10 13 11
195 195 190 185 182 179 177 175 178 183 186 183 176 171 165 149 137 138 143 152 151 152 157 155 147 139 137 130 129 127 120 122 120 126 128 125 126 127 126 121 118 114 112 111 106 102 97 93 87 80 74 69 65 62 59 54 52 52 52 50 45 42 41 53 50 39 34 24 21 25 28 27 26 34 45 51 31 8 359 357 352 346 349 359 5
194 195 193 189 187 183 179 178 181 185 189 184 178 177 169 156 147 144 144 155 157 159 165 162 159 152 145 142 139 134 125 126 123 121 123 124 123 121 121 119 117 115 114 113 107 101 96 91 84 78 73 68 64 60 55 48 44 42 43 47 51 51 50 53 37 26 28 21 21 23 26 26 23 28 33 39 26 5 360 359 358 360 2 3 8
195 192 193 193 189 185 183 184 185 187 191 187 182 180 169 159 156 154 150 158 161 160 170 174 171 161 153 155 149 139 133 130 124 116 118 120 120 120 121 120 118 116 115 111 106 102 96 89 81 76 71 66 61 55 50 44 40 39 35 40 52 56 55 55 29 12 21 25 29 28 28 27 21 28 30 28 21 6 3 2 10 22 19 18 28
195 191 192 195 193 188 187 188 190 191 190 187 184 179 170 165 162 162 159 159 166 165 165 169 170 166 161 162 155 145 140 134 126 120 122 122 120 122 122 122 120 117 115 110 104 100 93 86 79 73 69 66 59 51 50 47 42 38 32 30 32 40 48 43 17 6 21 35 39 35 31 30 22 29 39 36 23 6 0 10 32 34 27 30 39
195 192 190 194 194 191 192 194 195 196 195 189 187 184 175 171 169 168 168 163 169 172 164 155 159 165 167 167 161 150 145 137 131 131 130 128 126 126 126 125 122 118 115 109 104 101 94 85 78 72 67 64 58 54 58 56 46 35 26 19 16 24 36 30 2 0 27 45 45 40 33 32 27 33 47 43 24 7 8 36 45 33 33 42 38
195 197 195 193 193 194 195 198 202 202 200 197 194 192 183 178 177 173 174 173 174 178 170 159 157 165 172 172 165 155 150 144 141 141 139 136 134 133 132 129 125 120 115 112 109 103 95 85 77 69 64 61 60 59 64 64 54 42 30 16 13 19 23 15 353 5 39 50 47 41 36 35 33 39 51 46 32 28 35 52 49 35 48 47 35
190 198 206 197 193 199 198 199 206 205 202 202 201 198 191 188 186 181 180 182 183 187 179 168 166 171 178 176 169 164 158 151 150 150 147 142 141 141 138 136 132 124 119 115 112 105 95 83 72 60 55 50 49 50 51 50 43 36 26 13 9 10 11 6 357 27 50 51 47 44 41 40 38 45 52 51 50 51 51 52 49 51 60 45 30
191 197 208 205 198 201 200 199 206 208 203 203 203 200 197 195 194 188 185 189 191 193 188 178 177 180 184 183 176 173 166 159 162 160 155 150 148 149 147 147 141 133 129 121 114 105 89 72 53 33 29 17 14 20 22 21 19 13 1 354 350 348 5 7 4 41 56 53 48 47 46 41 39 51 54 54 57 52 51 49 46 55 58 42 29
196 197 203 208 207 205 200 199 208 210 201 199 201 200 198 198 200 194 188 193 196 196 195 187 186 189 189 191 187 180 174 170 170 170 167 161 158 159 159 160 155 147 139 134 130 111 72 48 22 1 356 356 7 8 12 11 352 342 334 335 330 326 11 15 10 49 66 56 50 51 50 46 46 56 57 56 57 51 49 45 44 49 49 44 37
198 198 200 207 213 211 203 200 209 210 202 201 201 200 201 199 199 195 191 195 199 200 198 191 193 198 197 201 199 184 178 179 179 179 180 176 172 173 173 172 170 162 154 158 148 117 328 348 343 335 334 356 20 3 3 14 335 325 330 1 345 327 27 20 10 50 69 57 53 60 56 56 58 59 59 57 57 53 48 43 44 45 42 42 38
200 204 203 207 212 210 206 206 210 212 210 211 208 205 203 200 199 196 193 197 200 201 201 196 196 203 206 209 209 189 179 184 188 187 189 188 186 185 185 185 184 176 174 186 179 265 289 313 305 307 332 357 19 353 351 6 0 0 354 1 348 344 44 15 9 47 60 56 59 67 63 66 67 63 61 58 55 51 47 43 43 42 36 38 38
205 208 205 207 211 205 204 211 215 215 215 216 214 210 205 202 199 198 200 202 204 203 202 203 199 205 212 213 214 199 184 189 195 194 194 197 196 194 196 197 197 191 195 213 231 258 278 291 287 298 345 349 6 345 349 0 352 350 355 347 336 355 57 2 8 49 56 61 65 70 71 72 69 66 62 57 53 48 45 41 40 40 35 35 38
211 211 210 208 213 209 205 211 218 219 217 216 214 211 211 208 201 200 205 208 211 208 205 209 203 206 214 213 212 208 196 195 199 199 198 201 204 204 205 206 207 210 216 230 247 269 285 288 289 304 318 313 320 320 340 355 342 339 352 333 324 21 74 356 2 41 59 72 73 78 80 78 72 67 61 56 53 48 44 39 37 39 35 34 34
216 216 218 216 217 216 212 215 220 221 220 216 212 211 214 215 210 209 211 212 217 214 209 213 208 209 217 212 211 215 208 201 203 203 201 204 208 209 210 212 213 222 232 242 256 271 278 278 281 287 288 282 284 288 307 336 331 337 341 318 320 73 70 354 351 3 72 83 82 89 87 83 76 67 61 56 54 48 44 39 37 38 34 32 30
219 220 223 223 223 221 219 221 223 223 221 216 213 212 213 217 219 219 220 217 219 219 215 215 211 214 220 216 214 219 214 208 209 209 207 207 210 212 216 220 221 229 243 253 258 264 268 270 268 274 278 276 282 279 270 287 310 318 323 313 340 94 54 40 21 329 66 85 92 95 89 86 75 67 60 56 54 47 43 40 42 44 36 29 28
218 219 223 225 226 224 222 222 222 222 221 218 216 214 214 219 221 220 226 224 220 223 223 219 214 215 220 220 220 222 220 214 212 213 212 210 212 217 220 224 229 234 245 253 262 266 265 268 266 273 282 280 288 265 240 237 266 278 294 330 22 87 355 29 2 321 340 91 105 96 90 88 75 66 58 55 53 45 42 40 44 50 38 27 27
216 219 223 225 226 225 223 222 220 219 220 219 219 217 218 225 225 220 227 229 224 227 229 226 221 219 220 223 223 225 224 220 217 217 215 212 215 221 224 228 236 240 246 253 266 271 263 266 269 274 279 280 309 222 217 211 236 263 106 51 62 341 317 337 317 300 277 148 111 101 96 87 74 67 55 54 47 39 40 38 40 44 37 28 23
215 221 225 227 229 227 224 223 222 220 220 220 222 222 220 227 229 224 228 230 229 232 233 232 229 225 224 225 226 228 230 227 224 222 218 216 217 223 227 231 239 246 252 258 265 267 262 261 260 265 273 286 312 296 252 225 230 236 147 162 183 240 285 291 289 279 243 156 114 112 107 88 73 68 55 52 41 33 35 35 39 36 33 24 15
214 220 225 228 230 230 228 227 226 224 223 221 223 225 224 225 228 228 231 232 233 237 236 234 233 230 227 228 230 231 233 233 231 228 223 220 221 226 230 231 238 249 258 264 268 267 262 258 249 251 262 273 266 254 269 233 225 207 179 189 202 233 257 257 264 263 223 154 127 124 114 97 78 63 51 48 32 29 30 31 37 31 26 14 5
213 219 225 228 230 231 231 230 229 227 226 224 224 226 227 226 228 231 233 233 235 238 237 234 235 233 228 227 231 232 233 236 237 233 228 226 225 228 232 236 242 250 259 266 270 265 257 252 248 249 257 256 236 223 232 217 200 197 200 200 212 234 247 249 254 248 198 160 146 139 123 107 87 63 48 41 25 26 29 32 32 22 13 2 356
214 220 225 229 230 231 231 231 231 231 229 228 228 228 228 229 229 231 234 235 236 238 237 236 237 236 231 225 229 232 232 236 238 236 233 232 231 233 236 241 247 251 256 263 265 261 252 247 243 246 260 249 225 222 236 228 208 218 222 217 221 236 245 244 248 233 184 161 159 156 138 106 82 61 50 34 20 27 29 31 22 6 358 352 351
216 220 224 227 229 230 231 231 231 233 233 231 230 230 229 230 231 231 234 235 235 238 238 236 236 237 234 227 227 231 232 236 238 236 235 237 237 239 240 241 247 252 255 259 261 259 251 247 244 247 252 237 221 224 236 233 228 239 239 227 225 233 241 237 227 214 185 166 166 168 158 118 73 53 53 28 24 33 23 17 1 351 348 345 343
218 219 223 227 230 231 231 232 231 231 233 232 231 231 231 230 231 232 234 234 235 237 237 236 237 239 239 233 230 231 231 234 240 239 236 237 240 242 243 243 249 254 257 259 260 258 251 247 245 244 246 236 225 227 228 225 235 247 236 220 225 230 233 231 211 200 186 175 180 177 166 148 105 39 97 107 39 19 351 343 338 340 342 340 340
222 218 220 225 229 232 233 233 232 231 231 231 230 230 231 230 230 230 232 232 232 232 234 236 237 240 241 239 235 234 234 235 240 243 242 241 243 245 247 248 252 257 259 258 256 256 256 249 237 238 244 239 234 236 235 236 236 234 219 203 221 234 229 224 206 196 187 186 192 185 178 183 199 225 210 206 324 321 319 318 325 335 339 341 342
227 222 219 221 225 229 231 232 233 232 230 229 227 226 228 228 228 229 230 231 231 232 235 238 238 239 242 243 240 238 237 238 240 244 246 245 247 249 250 251 253 255 256 255 254 256 258 251 235 235 242 238 235 233 237 248 229 211 205 199 229 244 229 221 206 193 190 195 197 193 210 217 202 208 245 267 281 293 299 310 321 331 340 343 340
229 227 224 222 223 226 229 230 231 231 228 226 225 226 228 230 230 231 232 233 234 234 235 237 239 240 242 244 245 243 241 240 241 244 247 248 249 250 251 251 251 253 255 255 254 253 253 246 233 233 240 238 236 234 238 240 206 189 192 197 222 228 217 217 205 193 194 201 203 205 218 220 203 191 230 255 260 276 288 305 318 327 336 339 337
229 228 227 226 224 225 229 230 230 231 229 226 225 226 230 233 235 237 237 237 237 237 239 242 244 244 245 246 248 249 248 245 244 246 248 249 249 249 250 250 250 252 254 253 251 248 246 242 233 231 237 237 237 236 233 220 194 187 190 192 197 194 197 209 199 192 200 206 208 213 219 212 202 193 216 242 249 264 279 294 309 322 332 337 341
230 230 230 230 228 228 229 230 230 231 230 228 226 226 229 233 236 238 239 240 240 241 243 246 247 247 248 249 250 251 251 250 249 248 249 249 249 249 249 248 248 249 250 249 246 245 245 243 236 232 235 239 244 240 225 209 196 192 193 196 195 182 185 202 198 191 201 209 211 214 217 207 199 201 212 233 242 250 265 281 302 320 332 340 345
230 230 230 231 231 231 230 230 230 231 232 230 229 227 228 230 233 236 238 240 242 243 243 242 243 245 246 248 250 250 250 251 251 251 251 252 251 249 248 247 247 247 247 246 244 244 245 245 242 237 235 240 246 242 226 211 206 203 196 196 196 188 190 200 197 192 196 206 213 212 214 210 202 203 210 224 235 240 253 273 303 325 337 346 349
228 229 229 230 232 232 232 233 233 233 233 232 232 230 228 228 229 232 233 234 237 238 238 238 237 238 242 244 247 248 250 251 252 252 253 254 253 252 250 248 247 246 245 243 244 246 246 246 243 239 239 242 245 243 235 222 214 211 206 198 190 197 206 203 195 194 195 202 212 212 212 213 207 208 211 218 228 236 248 272 312 332 342 349 350
230 230 230 231 232 234 233 234 236 236 236 235 234 233 232 231 229 230 230 231 232 233 235 237 237 238 240 242 244 247 249 251 253 254 255 256 256 255 251 249 248 246 246 244 243 244 244 244 242 239 240 245 244 241 238 229 216 212 212 211 207 209 214 206 199 196 193 198 209 215 220 222 211 209 214 212 221 234 244 267 319 338 343 348 350
233 232 232 232 232 234 234 234 237 239 239 238 236 235 236 235 234 234 235 235 236 239 241 242 243 244 244 244 245 246 248 250 252 254 255 257 257 255 251 249 249 248 247 245 244 244 244 245 244 243 241 242 242 240 238 233 222 215 215 218 218 219 217 213 210 203 196 200 207 213 223 228 218 212 216 210 211 226 238 260 316 341 344 348 351
236 234 233 233 232 233 234 234 237 240 242 242 240 239 238 238 238 237 238 240 242 245 248 248 249 250 250 249 247 247 248 249 252 253 255 256 255 253 250 249 249 248 247 246 246 245 245 245 245 244 240 238 239 242 243 241 230 221 218 220 219 220 221 222 222 220 215 210 206 208 214 218 215 214 216 209 207 218 229 249 307 340 347 349 349
238 237 236 235 234 234 235 235 237 239 241 243 243 243 242 241 241 240 240 242 244 246 248 250 251 251 252 253 250 248 248 249 251 252 254 254 253 251 249 248 248 246 246 247 248 247 244 243 245 245 241 237 237 240 247 248 239 228 224 225 222 220 221 223 223 223 227 223 212 210 210 209 210 212 214 208 202 212 224 241 297 336 345 347 346
239 240 239 237 236 236 235 235 236 238 239 241 243 244 244 244 243 242 242 243 244 245 246 247 249 250 251 252 251 250 248 248 250 252 253 253 253 252 250 248 247 246 246 247 247 246 244 242 245 247 243 241 240 241 247 251 248 238 230 229 226 221 219 220 219 219 223 225 223 218 210 207 209 211 212 208 197 201 218 238 290 330 341 343 345
238 239 239 236 236 235 235 236 237 238 239 240 242 243 244 245 245 245 245 246 245 244 245 247 248 249 250 251 252 252 251 250 250 252 253 253 252 253 252 249 248 247 247 247 247 247 246 245 245 244 242 243 243 244 246 247 247 243 236 234 230 222 221 224 223 222 223 223 225 220 207 205 211 211 210 210 202 196 209 238 286 321 335 338 340